Weather History for Patuxent River, MD

Change the Weather History Date:

Thursday, September 26, 2013

  Actual Average Record
Temperature  
Mean Temperature 65 °F -  
Max Temperature 75 °F 76 °F 92 °F (1986)
Min Temperature 57 °F 58 °F 44 °F (2001)
Growing Degree Days 15 (Base 50)    
Moisture  
Dew Point 55 °F    
Average Humidity 72    
Maximum Humidity 94    
Minimum Humidity 48    
Precipitation  
Precipitation 0.00 in - - ()
Sea Level Pressure  
Sea Level Pressure 29.98 in    
Wind  
Wind Speed 4 mph (NE)    
Max Wind Speed 9 mph    
Max Gust Speed -    
Visibility 10 miles    
Events      
Averages and records for this station are not official NWS values.
T = Trace of Precipitation, MM = Missing Value Source: NWS Daily Summary

Daily Weather History Graph

Daily Weather History Graph

Search for Another Location

Airport:

Trip Planner

Search our weather history database for the weather conditions in past years. The results will help you decide how hot, cold, wet, or windy it might be!

Date:

Astronomy

Sep. 26, 2013 Rise Set
Actual Time 6:57 AM EDT 6:55 PM EDT
Civil Twilight 6:30 AM EDT 7:22 PM EDT
Nautical Twilight 6:00 AM EDT 7:52 PM EDT
Astronomical Twilight 5:28 AM EDT 8:24 PM EDT
Moon 11:56 PM EDT 1:43 PM EDT
Length of Visible Light 12h 51m
Length of Day
11h 58m
Waning Gibbous, 55% of the Moon is Illuminated
Sep 26
Waning Gibbous
Sep 26
Last Quarter
Oct 4
New
Oct 11
First Quarter
Oct 18
Full

Hourly Weather History & Observations

Time (EDT) Temp. Dew Point Humidity Pressure Visibility Wind Dir Wind Speed Gust Speed Precip Events Conditions
12:52 AM 64.0 °F 57.0 °F 78% 29.93 in 10.0 mi ESE 5.8 mph - N/A   Clear
1:52 AM 59.0 °F 55.9 °F 90% 29.92 in 10.0 mi Calm Calm - N/A   Clear
2:52 AM 59.0 °F 55.9 °F 90% 29.92 in 10.0 mi Calm Calm - N/A   Clear
3:52 AM 57.9 °F 55.9 °F 93% 29.92 in 10.0 mi Calm Calm - N/A   Clear
4:52 AM 59.0 °F 55.9 °F 90% 29.91 in 10.0 mi Calm Calm - N/A   Clear
5:06 AM 57.2 °F 55.4 °F 94% 29.91 in 10.0 mi NNE 3.5 mph - N/A   Mostly Cloudy
5:52 AM 61.0 °F 57.0 °F 87% 29.92 in 10.0 mi NE 4.6 mph - N/A   Mostly Cloudy
6:52 AM 57.9 °F 55.0 °F 90% 29.94 in 10.0 mi NE 3.5 mph - N/A   Mostly Cloudy
7:52 AM 62.1 °F 57.0 °F 84% 29.96 in 10.0 mi ENE 4.6 mph - N/A   Mostly Cloudy
8:52 AM 64.0 °F 57.0 °F 78% 29.98 in 10.0 mi ENE 5.8 mph - N/A   Mostly Cloudy
9:52 AM 64.9 °F 57.0 °F 75% 30.00 in 10.0 mi ENE 9.2 mph - N/A   Mostly Cloudy
10:52 AM 69.1 °F 57.0 °F 65% 30.01 in 10.0 mi ENE 9.2 mph - N/A   Mostly Cloudy
11:52 AM 70.0 °F 54.0 °F 57% 30.01 in 10.0 mi East 8.1 mph - N/A   Mostly Cloudy
12:52 PM 70.0 °F 51.1 °F 51% 30.00 in 10.0 mi NE 4.6 mph - N/A   Mostly Cloudy
1:52 PM 71.1 °F 52.0 °F 51% 30.00 in 10.0 mi NE 5.8 mph - N/A   Mostly Cloudy
2:52 PM 71.1 °F 52.0 °F 51% 29.99 in 10.0 mi ENE 5.8 mph - N/A   Mostly Cloudy
3:52 PM 73.9 °F 53.1 °F 48% 29.99 in 10.0 mi North 6.9 mph - N/A   Mostly Cloudy
4:52 PM 72.0 °F 52.0 °F 49% 29.99 in 10.0 mi North 5.8 mph - N/A   Scattered Clouds
5:52 PM 72.0 °F 53.1 °F 51% 30.01 in 10.0 mi North 6.9 mph - N/A   Scattered Clouds
6:52 PM 68.0 °F 54.0 °F 61% 30.02 in 10.0 mi North 8.1 mph - N/A   Scattered Clouds
7:52 PM 66.0 °F 55.9 °F 70% 30.03 in 10.0 mi North 4.6 mph - N/A   Scattered Clouds
8:52 PM 64.9 °F 54.0 °F 68% 30.05 in 10.0 mi ENE 5.8 mph - N/A   Scattered Clouds
9:52 PM 64.0 °F 55.9 °F 75% 30.06 in 10.0 mi East 4.6 mph - N/A   Scattered Clouds
10:52 PM 64.0 °F 57.9 °F 80% 30.07 in 10.0 mi East 8.1 mph - N/A   Scattered Clouds
11:52 PM 63.0 °F 57.0 °F 81% 30.08 in 10.0 mi ESE 5.8 mph - 0.00 in   Clear